GSAT-10 (GAGAN/PRN 128)

Last updated on Wed Nov 05 2025 00:03:27 GMT+0000 (Coordinated Universal Time)

1 38779U 12051B 25308.55225373 -.00000152 00000+0 00000+0 0 9990 2 38779 0.0133 266.7693 0003517 224.1743 194.9049 1.00272318 47844
UTC large
Height (km)
Speed (km/s)
/
Latitude / Longitude
Inclination (degrees)
Orbital Period (minutes)
Azimuth
Elevation
Range (km)
Doppler Factor

Next 0 passes for location: London (51.5072 / 0.1276)

Sorry there are no passes over London.